This demonstration page uses our WeatherBlox Daily Observations layout. Learn more.

41.55636, -103.73856

Hourly Observations for January 8, 2018

Temp ( °F °C ) Dew Point ( °F °C ) Humidity (%) Winds ( mph kmh ) Pressure ( in mb ) Visibility ( mi km ) Precip ( " mm )
12:53 am 00:53 Clear 22 -5.6 16 -8.9 78 78 NNE 3 6 30.09 1019 10 16.09344 0 0
1:53 am 01:53 Clear 22 -5.6 15 -9.4 75 75 Calm 30.09 1019 10 16.09344 0 0
2:53 am 02:53 Clear 22 -5.6 15 -9.4 75 75 Calm 30.09 1019 10 16.09344 0 0
3:53 am 03:53 Clear 24 -4.4 17 -8.3 75 75 ENE 3 6 30.06 1018 10 16.09344 0 0
4:53 am 04:53 Clear 23 -5 16 -8.9 74 74 NE 7 11 30.06 1018 10 16.09344 0 0
5:53 am 05:53 Clear 26 -3.3 18 -7.8 71 71 E 9 15 30.06 1018 10 16.09344 0 0
6:53 am 06:53 Clear 29 -1.7 18 -7.8 63 63 E 6 9 30.06 1018 10 16.09344 0 0
7:53 am 07:53 Sunny 29 -1.7 19 -7.2 66 66 Calm 30.06 1018 10 16.09344 0 0
8:53 am 08:53 Sunny 29 -1.7 19 -7.2 66 66 NNW 5 7 30.09 1019 10 16.09344 0 0
9:53 am 09:53 Sunny 34 1.1 22 -5.6 61 61 NW 5 7 30.09 1019 10 16.09344 0 0
10:53 am 10:53 Sunny 45 7.2 26 -3.3 48 48 E 5 7 30.03 1017 10 16.09344 0 0
11:53 am 11:53 Sunny 50 10 28 -2.2 43 43 SE 3 6 30 1016 10 16.09344 0 0
12:53 pm 12:53 Sunny 47 8.3 30 -1.1 52 52 ESE 3 6 29.97 1015 10 16.09344 0 0
1:53 pm 13:53 Sunny 56 13.3 31 -0.6 39 39 Calm 29.91 1013 10 16.09344 0 0
2:53 pm 14:53 Sunny 47 8.3 29 -1.7 50 50 Calm 29.94 1014 10 16.09344 0 0
3:53 pm 15:53 Sunny 40 4.4 29 -1.7 65 65 Calm 29.97 1015 10 16.09344 0 0
4:53 pm 16:53 Clear 39 3.9 29 -1.7 67 67 SE 5 7 29.97 1015 10 16.09344 0 0
5:53 pm 17:53 Clear 40 4.4 29 -1.7 65 65 E 7 11 29.94 1014 10 16.09344 0 0
6:53 pm 18:53 Clear 48 8.9 30 -1.1 50 50 ESE 6 9 29.91 1013 10 16.09344 0 0
7:53 pm 19:53 Clear 37 2.8 29 -1.7 73 73 Calm 29.94 1014 10 16.09344 0 0
8:53 pm 20:53 Clear 39 3.9 28 -2.2 65 65 Calm 29.91 1013 10 16.09344 0 0
9:53 pm 21:53 Clear 34 1.1 27 -2.8 76 76 NE 8 13 29.91 1013 10 16.09344 0 0
10:53 pm 22:53 Clear 33 0.6 27 -2.8 78 78 S 3 6 29.88 1012 10 16.09344 0 0
11:53 pm 23:53 Clear 33 0.6 27 -2.8 78 78 Calm 29.85 1011 10 16.09344 0 0

Powered by AerisWeather